EW4885 Weather Reports


time (UTC)temp
F
wind
direction
speed
knots
gust
knots
rain 1hr
in
rain 24hr
in
rain mn
in
humidity
%
barometer
mb
20260903040041 54 99 0.0 0.0 0.00 0.00 0.00 92 1021.8
20260903034538 55 99 0.0 0.0 0.00 0.00 0.00 91 1021.8
20260903033037 55 99 0.0 0.0 0.00 0.00 0.00 91 1021.8
20260903031542 55 99 0.0 0.0 0.00 0.00 0.00 91 1021.9
20260903030046 55 99 0.0 0.0 0.00 0.00 0.00 91 1021.9
20260903024533 56 99 0.0 0.0 0.00 0.00 0.00 90 1021.8
20260903023033 56 99 0.0 0.0 0.00 0.00 0.00 90 1021.7
20260903021540 56 99 0.0 0.0 0.00 0.00 0.00 90 1021.6
20260903020034 57 99 0.0 0.0 0.00 0.00 0.00 89 1021.6
20260903014526 57 99 0.0 0.0 0.00 0.00 0.00 89 1021.7
20260903013025 57 99 0.0 0.0 0.00 0.00 0.00 89 1021.6
20260903011530 57 99 0.0 0.0 0.00 0.00 0.00 88 1021.5
20260903010030 58 99 0.0 0.0 0.00 0.00 0.00 87 1021.6
20260903004526 58 99 0.0 0.0 0.00 0.00 0.00 87 1021.5
20260903003019 59 99 0.0 0.0 0.00 0.00 0.00 87 1021.5
20260903001517 59 99 0.0 0.0 0.00 0.00 0.00 86 1021.5
20260903000034 59 99 0.0 0.0 0.00 0.00 0.00 86 1021.5
20260902234515 60 99 0.0 0.0 0.00 0.00 0.00 85 1021.6
20260902233014 60 98 0.0 0.0 0.00 0.00 0.00 85 1021.7
20260902231516 60 98 0.0 0.0 0.00 0.00 0.00 85 1021.5
20260902230010 61 42 0.0 0.0 0.00 0.00 0.00 84 1021.4
20260902224508 61 42 0.0 0.0 0.00 0.00 0.00 84 1021.3
20260902223018 61 41 0.0 0.0 0.00 0.00 0.00 83 1021.2
20260902221505 62 41 0.0 0.0 0.00 0.00 0.00 82 1021.2
20260902220002 62 42 0.0 0.0 0.00 0.00 0.00 80 1021.1
20260902214504 63 42 0.0 0.0 0.00 0.00 0.00 78 1021.1
20260902213059 64 42 0.0 0.0 0.00 0.00 0.00 77 1021.0
20260902211600 64 42 0.0 0.0 0.00 0.00 0.00 76 1021.0
20260902210059 65 41 0.0 0.0 0.00 0.00 0.00 74 1021.0
20260902204558 66 42 0.0 0.0 0.00 0.00 0.00 72 1021.0
20260902203057 67 41 0.0 0.0 0.00 0.00 0.00 70 1020.8
20260902201557 68 42 0.0 1.7 0.00 0.00 0.00 67 1020.6
20260902200057 69 38 0.9 2.6 0.00 0.00 0.00 65 1020.6
20260902194556 70 42 0.9 2.6 0.00 0.00 0.00 63 1020.6
20260902193147 72 347 0.0 0.0 0.00 0.00 0.00 61 1020.5
20260902191541 73 346 0.9 1.7 0.00 0.00 0.00 57 1020.3
20260902190034 75 348 1.7 3.5 0.00 0.00 0.00 55 1020.1
20260902184541 75 346 1.7 5.2 0.00 0.00 0.00 54 1019.9
20260902183040 76 323 2.6 4.3 0.00 0.00 0.00 53 1019.7
20260902181533 77 302 2.6 5.2 0.00 0.00 0.00 51 1019.7
20260902180035 78 332 1.7 4.3 0.00 0.00 0.00 50 1019.6
20260902174544 79 344 2.6 5.2 0.00 0.00 0.00 48 1019.4
20260902173050 80 342 2.6 5.2 0.00 0.00 0.00 47 1019.3
20260902171537 80 9 2.6 5.2 0.00 0.00 0.00 47 1019.3
20260902170031 80 355 1.7 4.3 0.00 0.00 0.00 46 1019.3
20260902164530 81 40 0.0 3.5 0.00 0.00 0.00 45 1019.2
20260902163028 82 49 1.7 5.2 0.00 0.00 0.00 44 1019.2
20260902161528 83 44 0.0 5.2 0.00 0.00 0.00 43 1019.2
20260902160039 83 49 1.7 4.3 0.00 0.00 0.00 43 1019.3
20260902154601 83 35 1.7 4.3 0.00 0.00 0.00 41 1019.4
20260902153100 83 321 2.6 7.0 0.00 0.00 0.00 40 1019.4
20260902151559 83 5 3.5 5.2 0.00 0.00 0.00 41 1019.4
20260902150058 83 282 3.5 5.2 0.00 0.00 0.00 41 1019.3
20260902144559 82 296 0.9 4.3 0.00 0.00 0.00 43 1019.5
20260902143057 82 244 0.9 2.6 0.00 0.00 0.00 42 1019.4
20260902141608 84 238 0.9 5.2 0.00 0.00 0.00 39 1019.3
20260902140057 85 170 0.9 3.5 0.00 0.00 0.00 39 1019.4
20260902134555 85 302 4.3 7.0 0.00 0.00 0.00 39 1019.6
20260902133057 85 83 2.6 4.3 0.00 0.00 0.00 41 1019.5
20260902131555 84 275 3.5 7.0 0.00 0.00 0.00 40 1019.6
20260902130052 84 255 1.7 4.3 0.00 0.00 0.00 42 1019.6
20260902124601 83 220 0.9 6.1 0.00 0.00 0.00 40 1019.7
20260902123114 82 234 2.6 5.2 0.00 0.00 0.00 42 1020.0
20260902121549 82 198 1.7 4.3 0.00 0.00 0.00 42 1020.1
20260902120043 82 307 2.6 7.0 0.00 0.00 0.00 42 1020.2
20260902114545 82 355 3.5 6.1 0.00 0.00 0.00 43 1020.3
20260902113037 81 15 0.0 4.3 0.00 0.00 0.00 47 1020.4
20260902111544 80 332 2.6 5.2 0.00 0.00 0.00 47 1020.4
20260902110037 80 317 0.9 5.2 0.00 0.00 0.00 48 1020.5
20260902104529 78 17 1.7 5.2 0.00 0.00 0.00 50 1020.6
20260902103029 77 31 1.7 4.3 0.00 0.00 0.00 52 1020.8
20260902101522 76 329 1.7 4.3 0.00 0.00 0.00 55 1020.8
20260902100120 75 315 1.7 5.2 0.00 0.00 0.00 57 1020.9
20260902094517 75 305 0.9 3.5 0.00 0.00 0.00 57 1020.9
20260902093015 74 165 0.0 4.3 0.00 0.00 0.00 61 1020.9
20260902091515 72 248 0.9 3.5 0.00 0.00 0.00 61 1021.0
20260902090010 71 44 0.0 2.6 0.00 0.00 0.00 65 1020.8
20260902084502 69 40 0.0 2.6 0.00 0.00 0.00 68 1020.8
20260902083100 69 181 0.9 1.7 0.00 0.00 0.00 71 1020.9
20260902081555 66 246 0.0 2.6 0.00 0.00 0.00 76 1020.8
20260902080053 65 69 0.0 2.6 0.00 0.00 0.00 79 1020.6
20260902074547 64 74 0.0 0.0 0.00 0.00 0.00 81 1020.5
20260902073047 62 18 0.0 2.6 0.00 0.00 0.00 82 1020.6
20260902071547 61 292 1.7 4.3 0.00 0.00 0.00 85 1020.5
20260902070044 61 302 2.6 5.2 0.00 0.00 0.00 87 1020.5
20260902064541 60 263 0.0 0.0 0.00 0.00 0.00 87 1020.0
20260902063035 59 217 0.0 0.0 0.00 0.00 0.00 87 1019.8
20260902061531 57 160 0.0 0.0 0.00 0.00 0.00 89 1019.6
20260902060030 56 160 0.0 0.0 0.00 0.00 0.00 90 1019.6
20260902054526 56 160 0.0 0.0 0.00 0.00 0.00 90 1019.6
20260902053025 55 147 0.9 2.6 0.00 0.00 0.00 91 1019.4
20260902051521 55 106 0.0 0.0 0.00 0.00 0.00 91 1019.3
20260902050020 55 119 0.0 0.0 0.00 0.00 0.00 90 1019.5
20260902044519 55 119 0.0 0.0 0.00 0.00 0.00 91 1019.5
20260902043018 55 119 0.0 0.0 0.00 0.00 0.00 91 1019.5
20260902041537 55 119 0.0 0.0 0.00 0.00 0.00 92 1019.4